星链-11467 (STARLINK-11467)

导读

STARLINK-11467是美国太空探索技术公司(SpaceX)星链(Starlink)卫星互联网星座的一员,于2024年11月24日发射入轨。星链计划旨在构建覆盖全球的低轨卫星互联网网络,STARLINK-11467服役后将为全球偏远地区、海洋空域等提供高速低延迟的互联网接入服务。

Basic Information
目录编号:
62068
目录名称:
STARLINK-11467
国际标识:
2024-217M
轨道中心:
EARTH
卫星名称:
星链-11467
卫星全名:
星链-11467 (STARLINK-11467)
卫星状态:
在轨 (已飞行656 天)
发射日期:
2024-11-24 UTC
国别 :
美国 (US)
星等 :
--
This satellite is enrolled in the Space Conjunction Data Service (SCDS) and the current flight risk assessment level is: No High Risk
Orbit Information
数据来源 国际轨道数据
星历时间: 2026-09-10T14:13:56+0800
1天前
查看轨道信息
半长轴: 6737.616km
偏心率: 0.0001514
轨道倾角: 53.156°
近地点辐角 105.105°
升交点赤经 241.294°
平近点角 255.014°
近地点: 358.458km
远地点: 360.5km
周期: 91.732分钟
每日圈数: 15.697968
Detailed Information
固有亮度:
5
最大亮度:
2.5
卫星平台:
Starlink V1.0
覆盖范围:
全球
运营商:
太空探索技术公司
运营商所在国:
美国
制造商(研发单位):
太空探索技术公司
制造商所在国:
美国
使用方式:
暂无
Satellite Introduction
Starlink 计划是 SpaceX 推出的全球卫星互联网项目,通过发射低轨道卫星,为全球尤其是偏远地区提供高速、低延迟的互联网服务。自 2019 年起,Starlink 已部署数千颗卫星,旨在缩小全球数字鸿沟,推动互联网普及。该项目还为军事、航空等行业提供通信支持,带来广泛经济效益。
2D Orbit Map
3D Orbit Map
Orbit Altitude Analysis Chart
Orbit Inclination Analysis Chart
Orbit Comprehensive Analysis Chart
View Comprehensive Chart
Conjunction Data List
Event ID Objects TCA Miss Dist (km) Collision Risk Probability Collision Risk Index (CRI) Action
CDM_260911-070906-030406-206821
2026-09-11T
07:09:48+0000
2.012 km
极远距离
1.84511E-6 低风险 0.4
CDM_260911-092706-030406-206821
2026-09-11T
09:27:19+0000
2.179 km
极远距离
1.536156E-6 低风险 0.39
CDM_260906-044506-206806-690621
DUPLEX (66906)
2026-09-06T
04:45:59+0000
1.778 km
极远距离
1.294869E-6 低风险 0.37
CDM_260913-150205-975706-206821
2026-09-13T
15:02:27+0000
2.841 km
极远距离
1.234098E-6 低风险 0.37
Miss Distance Evolution Trend with All Objects
Collision Probability Evolution Trend with All Objects